This is the latest recevied weather packets stored in our database for station/object KI4NG. If no packets are shown the sender has not sent any weather packets the latest 10 day(s).
| Time | Temp. | Humidity | Pressure | Rain* | Wind** | Luminosity | Snow |
|---|---|---|---|---|---|---|---|
| 1788020081 | 28.89° C | 67% | 1023.5 hPa | 0 mm | - | 177 W/m² | - |
| 1788019781 | 28.89° C | 66% | 1023.4 hPa | 0 mm | - | 730 W/m² | - |
| 1788019475 | 29.44° C | 64% | 1023.3 hPa | 0 mm | - | 741 W/m² | - |
| 1788019172 | 28.89° C | 63% | 1023.6 hPa | 0 mm | - | 813 W/m² | - |
| 1788018867 | 29.44° C | 67% | 1023.8 hPa | 0 mm | - | 810 W/m² | - |
| 1788018562 | 28.33° C | 69% | 1023.7 hPa | 0 mm | - | 791 W/m² | - |
| 1788018261 | 28.33° C | 70% | 1023.7 hPa | 0 mm | - | 753 W/m² | - |
| 1788017958 | 28.33° C | 68% | 1023.8 hPa | 0 mm | - | 723 W/m² | - |
| 1788017654 | 27.78° C | 70% | 1023.5 hPa | 0 mm | - | 713 W/m² | - |
| 1788017350 | 27.78° C | 71% | 1023.8 hPa | 0 mm | - | 707 W/m² | - |
| 1788017054 | 27.78° C | 77% | 1023.7 hPa | 0 mm | - | 701 W/m² | - |
| 1788016745 | 27.78° C | 72% | 1023.6 hPa | 0 mm | - | 689 W/m² | - |
| 1788016444 | 27.78° C | 72% | 1023.6 hPa | 0 mm | - | 686 W/m² | - |
| 1788016144 | 27.78° C | 71% | 1023.7 hPa | 0 mm | - | 678 W/m² | - |
| 1788015842 | 27.78° C | 72% | 1023.7 hPa | 0 mm | - | 663 W/m² | - |
| 1788015537 | 27.22° C | 73% | 1023.6 hPa | 0 mm | - | 642 W/m² | - |
| 1788015232 | 27.22° C | 71% | 1023.6 hPa | 0 mm | - | 636 W/m² | - |
| 1788014931 | 27.22° C | 74% | 1023.6 hPa | 0 mm | - | 625 W/m² | - |
| 1788014625 | 26.67° C | 72% | 1023.9 hPa | 0 mm | - | 620 W/m² | - |
| 1788014321 | 26.67° C | 73% | 1023.5 hPa | 0 mm | - | 594 W/m² | - |
| 1788014016 | 26.67° C | 73% | 1023.5 hPa | 0 mm | - | 572 W/m² | - |
| 1788013710 | 26.67° C | 73% | 1023.6 hPa | 0 mm | - | 556 W/m² | - |
| 1788013410 | 26.67° C | 73% | 1023.4 hPa | 0 mm | - | 536 W/m² | - |
| 1788013109 | 26.67° C | 73% | 1023.3 hPa | 0 mm | - | 512 W/m² | - |
| 1788012808 | 26.11° C | 75% | 1023.3 hPa | 0 mm | - | 469 W/m² | - |
* Rain latest hour (hover to see other rain measurements)
** Current wind speed in m/s (hover to see current wind gust speed)